TimeHST,TemperatureF,Dew PointF,Humidity,Sea Level PressureIn,VisibilityMPH,Wind Direction,Wind SpeedMPH,Gust SpeedMPH,PrecipitationIn,Events,Conditions,WindDirDegrees,DateUTC
12:53 AM,73.0,62.1,68,30.05,10.0,NNE,3.5,-,N/A,,Mostly Cloudy,30,2014-03-12 10:53:00
1:53 AM,72.0,62.1,71,30.03,10.0,Calm,Calm,-,N/A,,Scattered Clouds,0,2014-03-12 11:53:00
2:53 AM,72.0,61.0,68,30.01,10.0,NE,4.6,-,N/A,,Scattered Clouds,40,2014-03-12 12:53:00
3:53 AM,72.0,62.1,71,30.00,10.0,NNE,6.9,-,N/A,,Scattered Clouds,30,2014-03-12 13:53:00
4:53 AM,72.0,61.0,68,30.01,10.0,NE,5.8,-,N/A,,Scattered Clouds,50,2014-03-12 14:53:00
5:53 AM,70.0,61.0,73,30.02,10.0,NE,9.2,-,N/A,,Partly Cloudy,50,2014-03-12 15:53:00
6:53 AM,73.0,60.1,64,30.04,10.0,ENE,6.9,-,N/A,,Partly Cloudy,60,2014-03-12 16:53:00
7:53 AM,73.9,61.0,64,30.06,10.0,NNW,3.5,-,N/A,,Scattered Clouds,340,2014-03-12 17:53:00
8:53 AM,77.0,60.1,56,30.07,10.0,NNE,4.6,-,N/A,,Scattered Clouds,20,2014-03-12 18:53:00
9:53 AM,77.0,61.0,58,30.09,10.0,NNE,10.4,-,N/A,,Scattered Clouds,30,2014-03-12 19:53:00
10:53 AM,81.0,60.1,49,30.08,10.0,NE,16.1,24.2,N/A,,Scattered Clouds,40,2014-03-12 20:53:00
11:53 AM,82.0,61.0,49,30.07,10.0,NNE,12.7,19.6,N/A,,Scattered Clouds,20,2014-03-12 21:53:00
12:53 PM,82.9,60.1,46,30.04,10.0,NNE,13.8,23.0,N/A,,Scattered Clouds,20,2014-03-12 22:53:00
1:53 PM,82.0,61.0,49,30.02,10.0,NE,13.8,21.9,N/A,,Scattered Clouds,40,2014-03-12 23:53:00
2:53 PM,82.0,60.1,47,30.00,10.0,NNE,12.7,-,N/A,,Scattered Clouds,30,2014-03-13 00:53:00
3:53 PM,81.0,62.1,52,30.00,10.0,NNE,12.7,-,N/A,,Scattered Clouds,20,2014-03-13 01:53:00
4:53 PM,80.1,63.0,56,30.00,10.0,NNE,10.4,-,0.00,,Scattered Clouds,20,2014-03-13 02:53:00
5:53 PM,78.1,62.1,58,30.01,10.0,NNE,11.5,-,N/A,,Scattered Clouds,20,2014-03-13 03:53:00
6:53 PM,75.9,63.0,64,30.04,10.0,North,9.2,-,N/A,,Scattered Clouds,10,2014-03-13 04:53:00
7:53 PM,73.9,64.0,71,30.06,10.0,North,3.5,-,0.00,,Mostly Cloudy,360,2014-03-13 05:53:00
8:53 PM,73.9,64.0,71,30.08,10.0,ENE,10.4,-,0.00,Rain,Light Rain,70,2014-03-13 06:53:00
9:53 PM,75.0,62.1,64,30.09,10.0,ENE,6.9,-,0.00,,Scattered Clouds,60,2014-03-13 07:53:00
10:53 PM,73.9,63.0,68,30.09,10.0,NE,4.6,-,N/A,,Scattered Clouds,50,2014-03-13 08:53:00
11:53 PM,73.0,62.1,68,30.08,10.0,Variable,5.8,-,N/A,,Partly Cloudy,0,2014-03-13 09:53:00